SCP
0 0 0 0 0 0 0 0 0 0 0 0 0 0 0 0 0 0 0 0 0 0 0 0 0 0 0 0 0 0 0 0 0 0 0 0 0 0 0 0 0 0 0
0 0 0 0 0 0 0 0 0 0 0 0 0 0 0 0 0 0 0 0 0 0 0 0 0 0 0 0 0 0 0 0 0 0 0 0 0 0 0 0 0 0 0
0 0 0 0 0 0 0 0 0 0 0 0 0 0 0 0 0 0 0 0 0 0 0 0 0 0 0 0 0 0 0 0 0 0 0 0 0 0 0 0 0 0 0
0 0 0 0 0 0 0 0 0 0 0 0 0 0 0 0 0 0 0 0 0 0 0 0 0 0 0 0 0 0 0 0 0 0 0 0 0 0 0 0 0 0 0
0 0 0 0 0 0 0 0 0 0 0 0 0 0 0 0 0 0 0 0 0 0 0 0 0 0 0 0 0 0 0 0 0 0 0 0 0 0 0 0 0 0 0
0 0 0 0 0 0 0 0 0 0 0 0 0 0 0 0 0 0 0 0 0 0 0 0 0 0 0 0 0 0 0 0 0 0 0 0 0 0 0 0 0 0 0
0 0 0 0 0 0 0 0 0 0 0 0 0 0 0 0 0 0 0 0 0 0 0 0 0 0 0 0 0 0 0 0 0 0 0 0 0 0 0 0 0 0 0
0 0 0 0 0 0 0 0 0 0 0 0 0 0 0 0 0 0 0 0 0 0 0 0 0 0 0 0 0 0 0 0 0 0 0 0 0 0 0 0 0 0 0
0 0 0 0 0 0 0 0 0 0 0 0 0 0 0 0 0 0 0 0 0 0 0 0 0 0 0 0 0 0 0 0 0 0 0 0 0 0 0 0 0 0 0
0 0 0 0 0 0 0 0 0 0 0 0 0 0 0 0 0 0 0 0 0 0 0 0 0 0 0 0 0 0 0 0 0 0 0 0 0 0 0 0 0 0 0
0 0 0 0 0 0 0 0 0 0 0 0 0 0 0 0 0 0 0 0 0 0 0 0 0 0 0 0 0 0 0 0 0 0 0 0 0 0 0 0 0 0 0
0 0 0 0 0 0 0 0 0 0 0 0 0 0 0 0 0 0 0 0 0 0 0 0 0 0 0 0 0 0 0 0 0 0 0 0 0 0 0 0 0 0 0
0 0 0 0 0 0 0 0 0 0 0 0 0 0 0 0 0 0 0 0 0 0 0 0 0 0 0 0 0 0 0 0 0 0 0 0 0 0 0 0 0 0 0
0 0 0 0 0 0 0 0 0 0 0 0 0 0 0 0 0 0 0 0 0 0 0 0 0 0 0 0 0 0 0 0 0 0 0 0 0 0 0 0 0 0 0
0 0 0 0 0 0 0 0 0 0 0 0 0 0 0 0 0 0 0 0 0 0 0 0 0 0 0 0 0 0 0 0 0 0 0 0 0 0 0 -0 -0 0 0
0 0 0 0 0 0 0 0 0 0 0 0 0 0 0 0 0 0 0 0 0 0 0 0 0 0 0 0 0 0 0 0 0 0 0 0 0 0 0 -0 -0 -0 -0
0 0 0 0 0 0 0 0 0 0 0 0 0 0 0 0 0 0 0 0 0 0 0 0 0 0 0 0 0 0 0 0 0 0 0 0 0 0 0 0 0 -0 -0
0 0 0 0 0 0 0 0 0 0 0 0 0 0 0 0 0 0 0 0 0 0 0 0 0 0 0 0 0 0 0 0 0 0 0 0 0 0 0 0 0 0 -0
0 0 0 0 0 0 0 0 0 0 0 0 0 0 0 0 0 0 0 0 0 0 0 0 0 0 0 0 0 0 0 0 0 0 0 0 0 0 0 0 0 0 0
0 0 0 0 0 0 0 0 0 -0 0 0 0 0 0 0 0 0 0 0 0 0 0 0 0 0 0 0 0 0 0 0 0 0 0 0 0 0 0 0 0 0 0
0 0 0 0 0 0 0 0 0 0 0 0 0 0 0 0 0 0 0 0 0 0 0 0 0 0 0 0 0 0 0 0 0 0 0 0 0 0 0 0 0 0 -0
0 0 0 0 0 0 0 0 0 0 0 0 0 0 0 0 0 0 0 0 0 0 0 0 0 0 0 0 0 0 0 0 0 0 0 0 0 0 0 0 0 0 0
0 0 0 0 0 0 0 0 0 0 0 0 0 0 0 0 0 0 0 0 0 0 0 0 0 0 0 0 0 0 0 0 0 0 0 0 0 0 0 0 0 0 0
0 0 0 0 0 0 0 0 0 0 0 0 0 0 0 0 0 0 0 0 0 0 0 0 0 0 0 0 0 0 0 0 0 0 0 0 0 0 0 0 0 0 0
0 0 0 0 0 0 0 0 0 0 0 0 0 0 0 0 0 0 0 0 0 0 0 0 0 0 0 0 0 0 0 0 0 0 0 0 0 0 0 0 0 0 0
0 0 0 0 0 0 0 0 0 0 0 0 0 0 0 0 0 0 0 0 0 0 0 0 0 0 0 0 0 0 0 0 0 0 0 0 0 0 0 0 0 0 0
Wind_Speed_500mb
72 79 84 86 89 86 78 74 75 74 72 69 63 57 53 46 43 40 38 38 36 34 32 32 32 37 41 45 49 50 52 55 60 76 71 73 78 83 79 82 82 83 84
56 66 74 78 81 80 78 76 75 76 75 71 66 62 57 52 48 45 41 40 38 36 33 33 32 38 41 45 50 52 54 56 58 71 73 72 74 79 85 91 88 82 78
45 54 63 70 76 78 78 75 74 76 76 74 71 67 61 57 52 46 43 43 41 37 35 34 33 38 40 44 51 54 54 55 55 63 77 73 76 79 88 90 88 86 74
31 43 53 62 71 74 72 71 72 74 75 77 74 69 63 58 54 49 48 46 43 40 37 34 34 37 40 44 50 54 54 54 53 58 65 71 72 75 88 97 100 87 81
16 29 40 48 56 64 67 69 71 72 74 74 72 71 65 63 60 54 51 48 44 41 38 36 33 35 40 44 49 51 54 51 49 56 64 61 70 82 87 90 89 88 82
10 17 24 31 40 49 56 62 65 68 71 73 76 73 70 69 62 55 52 50 46 44 40 36 33 34 37 43 48 51 49 46 44 51 57 62 66 71 79 82 80 78 71
9 14 25 34 41 47 53 59 63 65 68 73 77 78 76 71 63 59 54 52 49 45 40 38 34 32 34 39 44 48 44 35 35 45 55 56 63 66 71 73 69 64 58
14 14 22 30 38 46 55 63 68 72 70 72 76 79 77 74 65 61 57 53 52 47 43 40 34 31 33 37 42 45 41 35 37 43 51 51 53 56 57 59 60 59 46
28 21 20 27 39 46 53 60 66 73 77 77 78 78 79 76 68 64 61 58 56 49 44 40 34 30 33 36 40 42 41 33 35 37 40 44 45 46 51 51 48 49 47
41 38 33 30 33 41 49 53 56 67 77 83 83 78 76 75 69 66 65 61 57 51 46 41 35 30 30 33 37 38 40 35 31 28 32 34 37 41 44 44 42 42 40
45 43 41 37 35 36 42 48 52 57 68 79 81 80 77 76 70 69 68 64 59 52 47 42 36 31 28 31 33 35 36 34 30 29 30 31 34 37 36 35 36 36 33
43 45 43 42 39 38 39 41 46 52 61 69 75 79 80 76 72 73 70 64 58 55 50 41 38 32 26 28 30 32 31 28 27 25 26 27 28 30 31 34 35 36 33
37 40 43 42 42 38 37 37 39 42 52 63 71 77 80 79 77 76 70 65 61 58 49 45 41 33 26 25 26 27 25 23 19 19 20 23 25 29 33 32 28 27 24
41 39 39 45 45 42 37 34 31 36 43 56 63 73 75 77 79 77 75 71 65 61 55 51 43 37 29 23 23 22 21 18 13 12 15 17 20 26 27 28 21 7 14
49 44 41 39 43 46 42 36 34 33 36 45 56 62 72 79 81 77 72 72 68 62 55 54 51 43 33 23 20 20 18 14 9 7 10 13 15 19 23 25 25 23 32
53 51 48 44 40 43 50 49 30 33 31 35 43 53 61 67 67 68 67 62 61 61 59 60 58 46 36 28 22 19 15 13 8 3 5 7 8 13 15 18 23 28 37
51 51 50 51 44 44 43 50 53 33 32 36 38 43 50 47 53 55 56 60 64 65 67 66 59 50 40 32 24 19 17 13 11 8 4 3 2 9 12 13 19 23 27
54 49 51 49 51 45 44 46 48 46 46 36 35 39 40 45 49 49 52 57 69 71 68 66 60 54 46 38 29 23 20 17 16 14 11 10 8 10 12 14 17 20 22
62 58 54 55 49 51 46 44 46 46 48 43 35 34 38 41 48 51 55 65 71 73 68 62 59 56 51 42 35 30 23 20 19 19 18 16 15 13 14 15 15 17 16
68 65 61 60 56 52 53 46 44 46 44 51 39 34 32 36 50 66 74 74 74 68 67 59 58 59 55 48 43 35 30 27 24 25 25 22 23 20 16 15 16 15 19
74 72 69 67 63 59 57 55 49 48 48 48 51 40 33 46 58 67 72 81 81 76 74 65 60 58 55 55 50 43 35 31 29 30 30 29 30 29 24 21 20 19 21
76 77 75 73 72 68 63 57 59 56 51 54 55 45 42 43 53 61 72 75 73 74 73 63 59 64 63 62 57 49 40 37 34 34 34 34 34 35 30 26 29 28 27
76 81 83 80 76 74 70 66 60 60 58 50 55 47 49 53 53 61 70 72 73 73 69 69 66 67 70 68 62 52 45 40 33 33 37 39 40 40 36 33 37 38 34
67 73 78 82 79 77 75 69 64 60 56 53 49 50 51 57 56 57 66 67 70 68 69 67 61 59 71 74 67 59 52 45 40 37 38 40 43 44 41 41 43 42 39
56 62 69 76 78 77 76 72 69 66 62 61 56 53 49 52 59 56 58 67 62 66 65 63 54 60 71 74 72 64 57 51 46 42 43 45 45 47 46 47 50 52 47
58 59 62 68 74 74 75 75 71 68 64 61 58 58 59 48 55 46 50 60 62 60 62 62 58 63 68 76 75 70 64 58 49 46 47 50 52 55 53 53 55 56 53
Wind_Direction_500mb
221 220 220 220 220 223 225 227 228 228 229 231 234 237 240 243 248 251 252 251 254 259 269 280 295 304 312 315 313 310 304 302 289 304 311 319 323 329 335 340 335 334 332
223 222 222 222 222 224 227 228 227 228 231 234 236 238 239 241 245 249 249 251 252 257 265 277 292 302 311 313 313 311 306 304 296 296 309 316 321 330 337 334 333 335 331
222 223 223 223 223 225 227 228 228 230 232 234 236 237 238 241 244 247 247 247 249 253 261 274 289 299 309 313 313 314 309 301 296 296 304 316 322 333 329 330 333 334 337
225 222 223 224 225 227 230 230 231 233 235 236 237 239 239 241 243 244 244 244 244 249 257 270 283 298 307 313 315 317 311 301 297 300 302 313 323 326 328 330 331 337 339
223 229 226 229 231 232 232 232 233 235 238 240 240 240 239 240 241 242 242 242 241 246 254 265 280 296 306 315 316 319 313 304 299 304 305 314 321 325 327 329 329 334 340
218 220 235 237 238 237 236 236 236 237 239 239 239 239 241 241 242 242 240 239 239 243 251 262 277 293 308 315 318 319 314 302 298 298 305 307 314 320 325 328 330 336 337
277 247 230 229 237 242 243 243 241 240 242 241 241 240 241 241 240 240 238 238 237 241 248 259 274 291 306 313 317 318 317 304 279 286 291 301 312 324 326 328 330 331 332
338 288 265 254 245 241 244 247 246 244 242 244 243 242 241 241 238 238 236 235 236 239 245 256 270 288 304 312 317 318 324 317 299 284 291 306 317 323 324 329 328 329 333
3 346 313 284 263 254 250 246 247 248 245 245 245 242 240 239 235 234 232 233 233 236 242 252 265 283 299 312 317 321 324 324 309 296 299 308 317 323 328 329 331 337 341
3 357 343 320 297 277 265 259 253 245 247 248 247 244 241 238 234 233 232 231 231 233 239 247 258 275 294 308 315 323 325 325 318 309 309 309 320 332 330 332 340 344 345
358 354 350 340 323 303 283 269 258 252 249 249 248 245 239 234 231 231 230 230 231 232 236 244 254 269 289 306 315 321 324 326 323 322 318 320 334 335 331 340 350 350 349
357 351 346 343 336 321 303 281 263 255 252 248 248 244 236 230 228 228 228 229 228 229 233 239 249 261 280 300 311 319 325 324 322 325 322 332 342 340 341 350 354 356 358
348 351 347 346 343 335 318 296 274 260 257 250 245 241 234 226 224 224 226 228 225 228 230 235 243 253 269 290 305 313 320 319 329 328 328 342 349 351 355 348 339 354 2
341 345 351 346 342 343 333 311 286 267 259 255 247 240 233 226 225 222 223 223 224 225 225 231 239 246 256 274 293 304 310 314 329 332 337 350 358 1 13 15 9 4 43
335 335 338 345 342 337 337 327 302 280 267 261 254 245 234 228 227 226 225 224 224 227 225 228 234 237 243 256 277 289 301 306 317 335 332 350 4 15 29 38 44 77 87
329 333 331 327 329 329 326 323 311 293 272 262 257 248 243 239 237 229 229 228 230 230 227 230 233 232 237 247 261 272 284 287 282 268 311 344 8 40 42 67 79 85 91
321 325 324 321 319 317 315 316 314 305 285 263 252 251 249 236 236 230 225 224 226 225 225 229 233 232 231 237 247 259 268 268 253 229 222 267 86 90 73 89 99 94 92
307 310 312 312 312 311 305 304 304 303 301 279 260 252 239 234 231 223 220 222 219 220 224 231 233 231 229 231 237 244 247 250 237 227 204 219 181 137 113 118 116 102 93
293 295 297 299 303 304 302 294 293 290 291 283 274 251 240 234 231 231 223 229 227 224 222 227 234 231 229 229 233 235 237 239 232 224 218 200 208 177 149 134 140 122 107
282 281 283 286 290 294 295 290 282 280 283 287 270 261 244 231 230 220 223 226 229 229 229 224 230 236 228 226 229 231 230 230 227 219 214 203 200 197 178 158 153 145 127
278 275 273 274 278 282 285 287 283 272 271 273 277 261 247 240 235 236 229 226 227 229 229 226 230 233 226 227 226 226 229 228 224 218 212 206 199 200 192 177 169 158 145
269 268 268 268 270 272 274 278 279 277 264 265 267 265 255 255 242 239 239 236 235 236 232 231 233 228 225 224 226 224 225 227 225 220 213 205 200 193 195 182 174 166 159
272 268 266 265 264 265 268 271 272 275 276 262 265 267 259 249 251 249 246 244 241 239 232 227 227 229 223 222 221 221 222 227 228 224 218 207 202 195 193 184 176 170 167
273 270 266 264 263 263 262 265 269 269 269 268 256 259 258 255 248 253 254 250 243 241 236 232 229 228 220 219 216 214 214 216 215 217 217 213 203 196 191 183 176 171 167
275 270 265 263 262 261 262 261 262 264 266 266 262 251 254 259 255 251 256 254 245 242 237 231 228 222 217 213 213 211 210 210 215 215 213 208 204 200 194 185 179 175 170
277 274 270 266 262 259 259 260 261 264 266 268 265 255 248 252 258 250 258 256 247 240 238 234 226 219 215 211 208 207 207 205 213 214 212 207 200 198 195 190 184 181 173
Wind_Speed_850mb
72 79 84 86 89 86 78 74 75 74 72 69 63 57 53 46 43 40 38 38 36 34 32 32 32 37 41 45 49 50 52 55 60 76 71 73 78 83 79 82 82 83 84
56 66 74 78 81 80 78 76 75 76 75 71 66 62 57 52 48 45 41 40 38 36 33 33 32 38 41 45 50 52 54 56 58 71 73 72 74 79 85 91 88 82 78
45 54 63 70 76 78 78 75 74 76 76 74 71 67 61 57 52 46 43 43 41 37 35 34 33 38 40 44 51 54 54 55 55 63 77 73 76 79 88 90 88 86 74
31 43 53 62 71 74 72 71 72 74 75 77 74 69 63 58 54 49 48 46 43 40 37 34 34 37 40 44 50 54 54 54 53 58 65 71 72 75 88 97 100 87 81
16 29 40 48 56 64 67 69 71 72 74 74 72 71 65 63 60 54 51 48 44 41 38 36 33 35 40 44 49 51 54 51 49 56 64 61 70 82 87 90 89 88 82
10 17 24 31 40 49 56 62 65 68 71 73 76 73 70 69 62 55 52 50 46 44 40 36 33 34 37 43 48 51 49 46 44 51 57 62 66 71 79 82 80 78 71
9 14 25 34 41 47 53 59 63 65 68 73 77 78 76 71 63 59 54 52 49 45 40 38 34 32 34 39 44 48 44 35 35 45 55 56 63 66 71 73 69 64 58
14 14 22 30 38 46 55 63 68 72 70 72 76 79 77 74 65 61 57 53 52 47 43 40 34 31 33 37 42 45 41 35 37 43 51 51 53 56 57 59 60 59 46
28 21 20 27 39 46 53 60 66 73 77 77 78 78 79 76 68 64 61 58 56 49 44 40 34 30 33 36 40 42 41 33 35 37 40 44 45 46 51 51 48 49 47
41 38 33 30 33 41 49 53 56 67 77 83 83 78 76 75 69 66 65 61 57 51 46 41 35 30 30 33 37 38 40 35 31 28 32 34 37 41 44 44 42 42 40
45 43 41 37 35 36 42 48 52 57 68 79 81 80 77 76 70 69 68 64 59 52 47 42 36 31 28 31 33 35 36 34 30 29 30 31 34 37 36 35 36 36 33
43 45 43 42 39 38 39 41 46 52 61 69 75 79 80 76 72 73 70 64 58 55 50 41 38 32 26 28 30 32 31 28 27 25 26 27 28 30 31 34 35 36 33
37 40 43 42 42 38 37 37 39 42 52 63 71 77 80 79 77 76 70 65 61 58 49 45 41 33 26 25 26 27 25 23 19 19 20 23 25 29 33 32 28 27 24
41 39 39 45 45 42 37 34 31 36 43 56 63 73 75 77 79 77 75 71 65 61 55 51 43 37 29 23 23 22 21 18 13 12 15 17 20 26 27 28 21 7 14
49 44 41 39 43 46 42 36 34 33 36 45 56 62 72 79 81 77 72 72 68 62 55 54 51 43 33 23 20 20 18 14 9 7 10 13 15 19 23 25 25 23 32
53 51 48 44 40 43 50 49 30 33 31 35 43 53 61 67 67 68 67 62 61 61 59 60 58 46 36 28 22 19 15 13 8 3 5 7 8 13 15 18 23 28 37
51 51 50 51 44 44 43 50 53 33 32 36 38 43 50 47 53 55 56 60 64 65 67 66 59 50 40 32 24 19 17 13 11 8 4 3 2 9 12 13 19 23 27
54 49 51 49 51 45 44 46 48 46 46 36 35 39 40 45 49 49 52 57 69 71 68 66 60 54 46 38 29 23 20 17 16 14 11 10 8 10 12 14 17 20 22
62 58 54 55 49 51 46 44 46 46 48 43 35 34 38 41 48 51 55 65 71 73 68 62 59 56 51 42 35 30 23 20 19 19 18 16 15 13 14 15 15 17 16
68 65 61 60 56 52 53 46 44 46 44 51 39 34 32 36 50 66 74 74 74 68 67 59 58 59 55 48 43 35 30 27 24 25 25 22 23 20 16 15 16 15 19
74 72 69 67 63 59 57 55 49 48 48 48 51 40 33 46 58 67 72 81 81 76 74 65 60 58 55 55 50 43 35 31 29 30 30 29 30 29 24 21 20 19 21
76 77 75 73 72 68 63 57 59 56 51 54 55 45 42 43 53 61 72 75 73 74 73 63 59 64 63 62 57 49 40 37 34 34 34 34 34 35 30 26 29 28 27
76 81 83 80 76 74 70 66 60 60 58 50 55 47 49 53 53 61 70 72 73 73 69 69 66 67 70 68 62 52 45 40 33 33 37 39 40 40 36 33 37 38 34
67 73 78 82 79 77 75 69 64 60 56 53 49 50 51 57 56 57 66 67 70 68 69 67 61 59 71 74 67 59 52 45 40 37 38 40 43 44 41 41 43 42 39
56 62 69 76 78 77 76 72 69 66 62 61 56 53 49 52 59 56 58 67 62 66 65 63 54 60 71 74 72 64 57 51 46 42 43 45 45 47 46 47 50 52 47
58 59 62 68 74 74 75 75 71 68 64 61 58 58 59 48 55 46 50 60 62 60 62 62 58 63 68 76 75 70 64 58 49 46 47 50 52 55 53 53 55 56 53
Wind_Direction_850mb
221 220 220 220 220 223 225 227 228 228 229 231 234 237 240 243 248 251 252 251 254 259 269 280 295 304 312 315 313 310 304 302 289 304 311 319 323 329 335 340 335 334 332
223 222 222 222 222 224 227 228 227 228 231 234 236 238 239 241 245 249 249 251 252 257 265 277 292 302 311 313 313 311 306 304 296 296 309 316 321 330 337 334 333 335 331
222 223 223 223 223 225 227 228 228 230 232 234 236 237 238 241 244 247 247 247 249 253 261 274 289 299 309 313 313 314 309 301 296 296 304 316 322 333 329 330 333 334 337
225 222 223 224 225 227 230 230 231 233 235 236 237 239 239 241 243 244 244 244 244 249 257 270 283 298 307 313 315 317 311 301 297 300 302 313 323 326 328 330 331 337 339
223 229 226 229 231 232 232 232 233 235 238 240 240 240 239 240 241 242 242 242 241 246 254 265 280 296 306 315 316 319 313 304 299 304 305 314 321 325 327 329 329 334 340
218 220 235 237 238 237 236 236 236 237 239 239 239 239 241 241 242 242 240 239 239 243 251 262 277 293 308 315 318 319 314 302 298 298 305 307 314 320 325 328 330 336 337
277 247 230 229 237 242 243 243 241 240 242 241 241 240 241 241 240 240 238 238 237 241 248 259 274 291 306 313 317 318 317 304 279 286 291 301 312 324 326 328 330 331 332
338 288 265 254 245 241 244 247 246 244 242 244 243 242 241 241 238 238 236 235 236 239 245 256 270 288 304 312 317 318 324 317 299 284 291 306 317 323 324 329 328 329 333
3 346 313 284 263 254 250 246 247 248 245 245 245 242 240 239 235 234 232 233 233 236 242 252 265 283 299 312 317 321 324 324 309 296 299 308 317 323 328 329 331 337 341
3 357 343 320 297 277 265 259 253 245 247 248 247 244 241 238 234 233 232 231 231 233 239 247 258 275 294 308 315 323 325 325 318 309 309 309 320 332 330 332 340 344 345
358 354 350 340 323 303 283 269 258 252 249 249 248 245 239 234 231 231 230 230 231 232 236 244 254 269 289 306 315 321 324 326 323 322 318 320 334 335 331 340 350 350 349
357 351 346 343 336 321 303 281 263 255 252 248 248 244 236 230 228 228 228 229 228 229 233 239 249 261 280 300 311 319 325 324 322 325 322 332 342 340 341 350 354 356 358
348 351 347 346 343 335 318 296 274 260 257 250 245 241 234 226 224 224 226 228 225 228 230 235 243 253 269 290 305 313 320 319 329 328 328 342 349 351 355 348 339 354 2
341 345 351 346 342 343 333 311 286 267 259 255 247 240 233 226 225 222 223 223 224 225 225 231 239 246 256 274 293 304 310 314 329 332 337 350 358 1 13 15 9 4 43
335 335 338 345 342 337 337 327 302 280 267 261 254 245 234 228 227 226 225 224 224 227 225 228 234 237 243 256 277 289 301 306 317 335 332 350 4 15 29 38 44 77 87
329 333 331 327 329 329 326 323 311 293 272 262 257 248 243 239 237 229 229 228 230 230 227 230 233 232 237 247 261 272 284 287 282 268 311 344 8 40 42 67 79 85 91
321 325 324 321 319 317 315 316 314 305 285 263 252 251 249 236 236 230 225 224 226 225 225 229 233 232 231 237 247 259 268 268 253 229 222 267 86 90 73 89 99 94 92
307 310 312 312 312 311 305 304 304 303 301 279 260 252 239 234 231 223 220 222 219 220 224 231 233 231 229 231 237 244 247 250 237 227 204 219 181 137 113 118 116 102 93
293 295 297 299 303 304 302 294 293 290 291 283 274 251 240 234 231 231 223 229 227 224 222 227 234 231 229 229 233 235 237 239 232 224 218 200 208 177 149 134 140 122 107
282 281 283 286 290 294 295 290 282 280 283 287 270 261 244 231 230 220 223 226 229 229 229 224 230 236 228 226 229 231 230 230 227 219 214 203 200 197 178 158 153 145 127
278 275 273 274 278 282 285 287 283 272 271 273 277 261 247 240 235 236 229 226 227 229 229 226 230 233 226 227 226 226 229 228 224 218 212 206 199 200 192 177 169 158 145
269 268 268 268 270 272 274 278 279 277 264 265 267 265 255 255 242 239 239 236 235 236 232 231 233 228 225 224 226 224 225 227 225 220 213 205 200 193 195 182 174 166 159
272 268 266 265 264 265 268 271 272 275 276 262 265 267 259 249 251 249 246 244 241 239 232 227 227 229 223 222 221 221 222 227 228 224 218 207 202 195 193 184 176 170 167
273 270 266 264 263 263 262 265 269 269 269 268 256 259 258 255 248 253 254 250 243 241 236 232 229 228 220 219 216 214 214 216 215 217 217 213 203 196 191 183 176 171 167
275 270 265 263 262 261 262 261 262 264 266 266 262 251 254 259 255 251 256 254 245 242 237 231 228 222 217 213 213 211 210 210 215 215 213 208 204 200 194 185 179 175 170
277 274 270 266 262 259 259 260 261 264 266 268 265 255 248 252 258 250 258 256 247 240 238 234 226 219 215 211 208 207 207 205 213 214 212 207 200 198 195 190 184 181 173